QPF
0.00 0.00 0.00 0.00 0.00 0.00 0.00 0.00 0.00 0.00 0.00 0.00 0.00 0.00 0.00 0.00 0.00 0.00 0.00 0.00 0.00 0.00 0.01 0.01 0.01 0.02 0.03 0.02 0.03 0.03 0.03 0.03 0.05 0.08 0.09 0.07 0.06 0.06 0.07 0.07 0.07 0.04 0.04
0.00 0.00 0.00 0.00 0.00 0.00 0.00 0.00 0.00 0.00 0.00 0.00 0.00 0.00 0.00 0.00 0.00 0.00 0.00 0.00 0.00 0.00 0.01 0.01 0.01 0.02 0.02 0.02 0.03 0.04 0.04 0.03 0.03 0.05 0.08 0.11 0.08 0.05 0.04 0.05 0.07 0.06 0.05
0.00 0.00 0.00 0.00 0.00 0.00 0.00 0.00 0.00 0.00 0.00 0.00 0.00 0.00 0.00 0.00 0.00 0.00 0.00 0.00 0.00 0.00 0.00 0.01 0.01 0.02 0.02 0.02 0.03 0.04 0.04 0.04 0.04 0.05 0.07 0.09 0.10 0.07 0.03 0.03 0.04 0.07 0.08
0.00 0.00 0.00 0.00 0.00 0.00 0.00 0.00 0.00 0.00 0.00 0.00 0.00 0.00 0.00 0.00 0.00 0.00 0.00 0.00 0.00 0.00 0.00 0.00 0.01 0.01 0.01 0.01 0.01 0.02 0.04 0.04 0.04 0.05 0.06 0.07 0.08 0.09 0.06 0.04 0.03 0.04 0.06
0.00 0.00 0.00 0.00 0.00 0.00 0.00 0.00 0.00 0.00 0.00 0.00 0.00 0.00 0.00 0.00 0.00 0.00 0.00 0.00 0.00 0.00 0.00 0.01 0.00 0.00 0.00 0.00 0.00 0.01 0.02 0.04 0.04 0.04 0.05 0.04 0.05 0.06 0.07 0.06 0.04 0.04 0.03
0.00 0.00 0.00 0.00 0.00 0.00 0.00 0.00 0.00 0.00 0.00 0.00 0.00 0.00 0.00 0.00 0.00 0.00 0.00 0.00 0.00 0.00 0.00 0.00 0.01 0.00 0.00 0.00 0.00 0.01 0.02 0.02 0.03 0.04 0.05 0.05 0.06 0.05 0.06 0.05 0.05 0.04 0.03
0.00 0.00 0.00 0.00 0.00 0.00 0.00 0.00 0.00 0.00 0.00 0.00 0.00 0.00 0.00 0.00 0.00 0.00 0.00 0.00 0.00 0.00 0.00 0.00 0.01 0.01 0.00 0.01 0.01 0.01 0.01 0.01 0.01 0.02 0.03 0.04 0.04 0.05 0.06 0.07 0.06 0.05 0.03
0.00 0.00 0.00 0.00 0.00 0.00 0.00 0.00 0.00 0.00 0.00 0.00 0.00 0.00 0.00 0.00 0.00 0.00 0.00 0.00 0.00 0.00 0.00 0.00 0.00 0.00 0.01 0.01 0.01 0.02 0.01 0.01 0.01 0.01 0.02 0.03 0.03 0.04 0.05 0.06 0.06 0.05 0.04
0.00 0.00 0.00 0.00 0.00 0.00 0.00 0.00 0.00 0.00 0.00 0.00 0.00 0.00 0.00 0.00 0.00 0.00 0.00 0.00 0.00 0.00 0.00 0.00 0.00 0.00 0.01 0.01 0.00 0.01 0.01 0.01 0.00 0.01 0.01 0.02 0.02 0.03 0.04 0.05 0.06 0.06 0.03
0.00 0.00 0.00 0.00 0.00 0.00 0.00 0.00 0.00 0.00 0.00 0.00 0.00 0.00 0.00 0.00 0.00 0.00 0.00 0.00 0.00 0.00 0.00 0.00 0.00 0.00 0.01 0.01 0.01 0.00 0.00 0.00 0.01 0.01 0.01 0.01 0.01 0.02 0.02 0.03 0.05 0.05 0.05
0.00 0.00 0.00 0.00 0.00 0.00 0.00 0.00 0.00 0.00 0.00 0.00 0.00 0.00 0.00 0.00 0.00 0.00 0.00 0.00 0.00 0.00 0.00 0.00 0.00 0.00 0.01 0.01 0.01 0.01 0.00 0.01 0.01 0.01 0.01 0.01 0.01 0.01 0.01 0.02 0.03 0.03 0.04
0.00 0.00 0.00 0.00 0.00 0.00 0.00 0.00 0.00 0.00 0.00 0.00 0.00 0.00 0.00 0.00 0.00 0.00 0.00 0.00 0.00 0.00 0.00 0.00 0.00 0.00 0.00 0.00 0.00 0.01 0.01 0.01 0.01 0.01 0.01 0.00 0.00 0.01 0.01 0.01 0.02 0.03 0.03
0.00 0.00 0.00 0.00 0.00 0.00 0.00 0.00 0.00 0.00 0.00 0.00 0.00 0.00 0.00 0.00 0.00 0.00 0.00 0.00 0.00 0.00 0.00 0.00 0.01 0.01 0.01 0.00 0.00 0.00 0.01 0.01 0.01 0.01 0.01 0.01 0.00 0.01 0.01 0.01 0.02 0.02 0.03
0.00 0.00 0.00 0.00 0.00 0.00 0.00 0.00 0.00 0.00 0.00 0.00 0.00 0.00 0.00 0.00 0.00 0.00 0.00 0.00 0.00 0.00 0.00 0.00 0.01 0.01 0.01 0.01 0.00 0.00 0.00 0.00 0.00 0.00 0.01 0.01 0.01 0.01 0.01 0.02 0.02 0.01 0.03
0.00 0.00 0.00 0.00 0.00 0.00 0.00 0.00 0.00 0.00 0.00 0.00 0.00 0.00 0.00 0.00 0.00 0.00 0.00 0.00 0.00 0.00 0.00 0.00 0.00 0.00 0.01 0.01 0.01 0.00 0.00 0.00 0.00 0.00 0.00 0.00 0.01 0.01 0.01 0.01 0.02 0.02 0.03
0.00 0.00 0.00 0.00 0.00 0.00 0.00 0.00 0.00 0.00 0.00 0.00 0.00 0.00 0.00 0.00 0.00 0.00 0.00 0.00 0.00 0.00 0.00 0.00 0.00 0.00 0.00 0.01 0.01 0.00 0.01 0.00 0.00 0.00 0.00 0.00 0.00 0.01 0.01 0.01 0.02 0.02 0.02
0.00 0.00 0.00 0.00 0.00 0.00 0.00 0.00 0.00 0.00 0.00 0.00 0.00 0.00 0.00 0.00 0.00 0.00 0.00 0.00 0.00 0.00 0.00 0.00 0.00 0.00 0.00 0.01 0.00 0.00 0.00 0.00 0.00 0.00 0.00 0.00 0.00 0.00 0.00 0.00 0.01 0.01 0.01
0.00 0.00 0.00 0.00 0.00 0.00 0.00 0.00 0.00 0.00 0.00 0.00 0.00 0.00 0.00 0.00 0.00 0.00 0.00 0.00 0.00 0.00 0.00 0.00 0.00 0.00 0.00 0.00 0.00 0.00 0.00 0.00 0.00 0.00 0.00 0.00 0.01 0.00 0.00 0.00 0.01 0.02 0.02
0.00 0.00 0.00 0.00 0.00 0.00 0.00 0.00 0.00 0.00 0.00 0.00 0.00 0.00 0.00 0.00 0.00 0.00 0.00 0.00 0.00 0.00 0.00 0.00 0.00 0.00 0.00 0.00 0.00 0.00 0.00 0.01 0.00 0.00 0.00 0.00 0.01 0.00 0.00 0.01 0.01 0.02 0.02
0.00 0.00 0.00 0.00 0.00 0.00 0.00 0.00 0.00 0.00 0.00 0.00 0.00 0.00 0.00 0.00 0.00 0.00 0.00 0.00 0.00 0.00 0.00 0.00 0.00 0.00 0.00 0.00 0.00 0.00 0.01 0.01 0.00 0.00 0.00 0.00 0.00 0.00 0.00 0.00 0.01 0.01 0.01
0.00 0.00 0.00 0.00 0.00 0.00 0.00 0.00 0.00 0.00 0.00 0.00 0.00 0.00 0.00 0.00 0.00 0.00 0.00 0.00 0.00 0.00 0.00 0.00 0.00 0.00 0.00 0.00 0.00 0.00 0.00 0.00 0.00 0.00 0.00 0.00 0.00 0.00 0.00 0.00 0.01 0.01 0.01
0.00 0.00 0.00 0.00 0.00 0.00 0.00 0.00 0.00 0.00 0.00 0.00 0.00 0.00 0.00 0.00 0.00 0.00 0.00 0.00 0.00 0.00 0.00 0.00 0.00 0.00 0.00 0.00 0.00 0.00 0.00 0.00 0.00 0.00 0.00 0.00 0.00 0.00 0.00 0.00 0.00 0.00 0.00
0.00 0.00 0.00 0.00 0.00 0.00 0.00 0.00 0.00 0.00 0.00 0.00 0.00 0.00 0.00 0.00 0.00 0.00 0.00 0.00 0.00 0.00 0.00 0.00 0.00 0.00 0.00 0.00 0.00 0.00 0.00 0.00 0.00 0.00 0.00 0.00 0.00 0.00 0.00 0.00 0.00 0.00 0.01
0.00 0.00 0.00 0.00 0.00 0.00 0.00 0.00 0.00 0.00 0.00 0.00 0.00 0.00 0.00 0.00 0.00 0.00 0.00 0.00 0.00 0.00 0.00 0.00 0.00 0.00 0.00 0.00 0.00 0.00 0.00 0.00 0.00 0.00 0.00 0.00 0.00 0.00 0.00 0.00 0.00 0.00 0.00
0.00 0.00 0.00 0.00 0.00 0.00 0.00 0.00 0.00 0.00 0.00 0.00 0.00 0.00 0.00 0.00 0.00 0.00 0.00 0.00 0.00 0.00 0.00 0.00 0.00 0.00 0.00 0.00 0.00 0.00 0.00 0.00 0.00 0.00 0.00 0.00 0.00 0.00 0.00 0.00 0.00 0.00 0.00
0.00 0.00 0.00 0.00 0.00 0.00 0.00 0.00 0.00 0.00 0.00 0.00 0.00 0.00 0.00 0.00 0.00 0.00 0.00 0.00 0.00 0.00 0.00 0.00 0.00 0.00 0.00 0.00 0.00 0.00 0.00 0.00 0.00 0.00 0.00 0.00 0.00 0.00 0.00 0.00 0.00 0.00 0.00
MSLP
1011.88 1012.26 1012.67 1013.07 1013.42 1013.71 1013.96 1014.18 1014.38 1014.58 1014.78 1014.97 1015.14 1015.26 1015.33 1015.32 1015.25 1015.13 1014.99 1014.84 1014.72 1014.64 1014.58 1014.55 1014.50 1014.41 1014.27 1014.05 1013.75 1013.39 1013.00 1012.61 1012.24 1011.93 1011.69 1011.51 1011.39 1011.30 1011.23 1011.17 1011.10 1011.04 1010.99
1011.47 1011.89 1012.32 1012.73 1013.10 1013.41 1013.69 1013.94 1014.19 1014.46 1014.73 1014.98 1015.21 1015.38 1015.47 1015.47 1015.39 1015.25 1015.10 1014.95 1014.84 1014.78 1014.75 1014.75 1014.73 1014.67 1014.53 1014.31 1014.00 1013.63 1013.22 1012.83 1012.47 1012.18 1011.96 1011.80 1011.69 1011.60 1011.51 1011.40 1011.26 1011.12 1010.99
1011.02 1011.46 1011.92 1012.35 1012.73 1013.06 1013.36 1013.66 1013.96 1014.29 1014.62 1014.94 1015.23 1015.43 1015.55 1015.55 1015.47 1015.33 1015.16 1015.01 1014.90 1014.85 1014.85 1014.88 1014.89 1014.85 1014.73 1014.52 1014.22 1013.86 1013.47 1013.10 1012.77 1012.51 1012.32 1012.19 1012.09 1011.99 1011.87 1011.71 1011.51 1011.29 1011.07
1010.53 1011.00 1011.48 1011.93 1012.33 1012.68 1013.01 1013.34 1013.69 1014.07 1014.46 1014.84 1015.16 1015.41 1015.54 1015.56 1015.48 1015.33 1015.15 1015.00 1014.89 1014.85 1014.87 1014.92 1014.95 1014.94 1014.85 1014.67 1014.41 1014.08 1013.74 1013.40 1013.12 1012.91 1012.75 1012.64 1012.55 1012.44 1012.28 1012.07 1011.81 1011.52 1011.23
1010.04 1010.53 1011.03 1011.50 1011.92 1012.30 1012.65 1013.01 1013.39 1013.80 1014.23 1014.65 1015.01 1015.28 1015.44 1015.47 1015.39 1015.24 1015.07 1014.92 1014.82 1014.78 1014.81 1014.88 1014.94 1014.96 1014.90 1014.76 1014.55 1014.27 1013.98 1013.71 1013.48 1013.31 1013.19 1013.10 1013.01 1012.88 1012.69 1012.44 1012.12 1011.77 1011.43
1009.59 1010.10 1010.62 1011.11 1011.54 1011.93 1012.30 1012.67 1013.07 1013.49 1013.94 1014.37 1014.75 1015.04 1015.22 1015.27 1015.20 1015.07 1014.91 1014.77 1014.67 1014.65 1014.69 1014.77 1014.85 1014.89 1014.88 1014.79 1014.62 1014.41 1014.18 1013.97 1013.79 1013.66 1013.57 1013.49 1013.39 1013.25 1013.04 1012.75 1012.40 1012.01 1011.63
1009.22 1009.73 1010.26 1010.76 1011.21 1011.60 1011.97 1012.34 1012.73 1013.15 1013.58 1014.01 1014.39 1014.69 1014.88 1014.96 1014.92 1014.82 1014.68 1014.56 1014.48 1014.47 1014.52 1014.61 1014.70 1014.77 1014.78 1014.73 1014.62 1014.46 1014.29 1014.13 1014.00 1013.90 1013.83 1013.75 1013.65 1013.50 1013.27 1012.96 1012.59 1012.19 1011.78
1008.93 1009.44 1009.98 1010.48 1010.93 1011.32 1011.67 1012.01 1012.37 1012.76 1013.17 1013.58 1013.95 1014.26 1014.46 1014.56 1014.56 1014.49 1014.40 1014.31 1014.26 1014.26 1014.32 1014.42 1014.52 1014.60 1014.63 1014.61 1014.54 1014.42 1014.30 1014.17 1014.07 1013.99 1013.93 1013.85 1013.75 1013.59 1013.35 1013.04 1012.67 1012.27 1011.87
1008.72 1009.23 1009.75 1010.25 1010.68 1011.05 1011.38 1011.69 1012.01 1012.36 1012.73 1013.11 1013.46 1013.76 1013.98 1014.11 1014.15 1014.14 1014.09 1014.04 1014.02 1014.04 1014.11 1014.21 1014.31 1014.39 1014.44 1014.43 1014.38 1014.29 1014.19 1014.08 1014.00 1013.92 1013.86 1013.78 1013.67 1013.51 1013.28 1012.99 1012.64 1012.27 1011.89
1008.55 1009.03 1009.55 1010.02 1010.44 1010.78 1011.08 1011.36 1011.64 1011.94 1012.27 1012.62 1012.95 1013.25 1013.48 1013.64 1013.73 1013.77 1013.77 1013.77 1013.78 1013.83 1013.90 1014.00 1014.10 1014.17 1014.21 1014.21 1014.16 1014.08 1013.99 1013.89 1013.80 1013.73 1013.65 1013.57 1013.46 1013.30 1013.10 1012.83 1012.52 1012.19 1011.84
1008.35 1008.81 1009.30 1009.75 1010.14 1010.46 1010.73 1010.99 1011.24 1011.51 1011.81 1012.13 1012.45 1012.75 1013.00 1013.19 1013.32 1013.41 1013.46 1013.50 1013.54 1013.61 1013.69 1013.78 1013.87 1013.94 1013.97 1013.95 1013.91 1013.82 1013.73 1013.63 1013.53 1013.44 1013.36 1013.27 1013.16 1013.02 1012.84 1012.61 1012.35 1012.07 1011.77
1008.06 1008.49 1008.94 1009.36 1009.73 1010.04 1010.30 1010.55 1010.79 1011.06 1011.36 1011.67 1011.99 1012.29 1012.56 1012.78 1012.94 1013.06 1013.15 1013.22 1013.30 1013.37 1013.46 1013.55 1013.63 1013.68 1013.70 1013.68 1013.63 1013.54 1013.44 1013.33 1013.23 1013.13 1013.04 1012.95 1012.84 1012.72 1012.57 1012.39 1012.18 1011.94 1011.69
1007.63 1008.02 1008.42 1008.81 1009.17 1009.47 1009.75 1010.02 1010.29 1010.58 1010.89 1011.22 1011.56 1011.87 1012.16 1012.39 1012.58 1012.73 1012.84 1012.93 1013.01 1013.10 1013.19 1013.27 1013.34 1013.39 1013.40 1013.38 1013.33 1013.24 1013.14 1013.04 1012.93 1012.83 1012.74 1012.65 1012.55 1012.45 1012.33 1012.18 1012.02 1011.83 1011.62
1007.03 1007.36 1007.72 1008.09 1008.43 1008.76 1009.07 1009.38 1009.70 1010.05 1010.41 1010.77 1011.13 1011.47 1011.77 1012.02 1012.22 1012.37 1012.49 1012.58 1012.67 1012.76 1012.84 1012.92 1012.98 1013.03 1013.05 1013.03 1012.99 1012.92 1012.83 1012.73 1012.63 1012.54 1012.46 1012.37 1012.29 1012.21 1012.12 1012.01 1011.88 1011.73 1011.56
1006.28 1006.55 1006.86 1007.20 1007.54 1007.90 1008.26 1008.64 1009.04 1009.46 1009.88 1010.30 1010.70 1011.06 1011.37 1011.63 1011.82 1011.97 1012.08 1012.17 1012.25 1012.32 1012.40 1012.47 1012.54 1012.58 1012.61 1012.61 1012.58 1012.54 1012.47 1012.39 1012.32 1012.24 1012.17 1012.11 1012.05 1011.99 1011.92 1011.83 1011.73 1011.61 1011.47
1005.41 1005.62 1005.89 1006.20 1006.56 1006.95 1007.38 1007.83 1008.32 1008.82 1009.32 1009.79 1010.23 1010.62 1010.94 1011.19 1011.38 1011.52 1011.61 1011.69 1011.75 1011.81 1011.87 1011.94 1012.00 1012.04 1012.08 1012.09 1012.09 1012.06 1012.02 1011.98 1011.93 1011.89 1011.85 1011.81 1011.78 1011.74 1011.69 1011.63 1011.55 1011.45 1011.32
1004.52 1004.67 1004.89 1005.18 1005.55 1005.97 1006.46 1007.00 1007.57 1008.14 1008.71 1009.24 1009.72 1010.13 1010.46 1010.71 1010.88 1011.01 1011.09 1011.15 1011.19 1011.24 1011.29 1011.33 1011.38 1011.42 1011.45 1011.47 1011.48 1011.47 1011.46 1011.45 1011.44 1011.43 1011.43 1011.43 1011.43 1011.42 1011.39 1011.35 1011.28 1011.19 1011.07
1003.70 1003.78 1003.96 1004.24 1004.61 1005.07 1005.60 1006.20 1006.83 1007.47 1008.09 1008.66 1009.17 1009.59 1009.93 1010.18 1010.36 1010.48 1010.55 1010.60 1010.64 1010.67 1010.70 1010.72 1010.75 1010.76 1010.77 1010.78 1010.78 1010.78 1010.78 1010.79 1010.82 1010.85 1010.89 1010.93 1010.97 1010.99 1010.99 1010.97 1010.92 1010.84 1010.72
1003.01 1003.05 1003.20 1003.46 1003.83 1004.30 1004.86 1005.49 1006.16 1006.83 1007.48 1008.08 1008.60 1009.04 1009.39 1009.65 1009.84 1009.97 1010.05 1010.11 1010.14 1010.16 1010.17 1010.17 1010.15 1010.13 1010.10 1010.06 1010.03 1010.01 1010.01 1010.04 1010.08 1010.15 1010.24 1010.33 1010.41 1010.47 1010.51 1010.51 1010.47 1010.40 1010.28
1002.51 1002.52 1002.64 1002.88 1003.24 1003.72 1004.29 1004.93 1005.60 1006.28 1006.93 1007.53 1008.06 1008.51 1008.87 1009.16 1009.38 1009.54 1009.65 1009.73 1009.77 1009.79 1009.78 1009.74 1009.68 1009.59 1009.50 1009.40 1009.31 1009.26 1009.23 1009.25 1009.31 1009.41 1009.54 1009.68 1009.81 1009.92 1009.99 1010.02 1010.00 1009.92 1009.80
1002.19 1002.18 1002.28 1002.51 1002.86 1003.33 1003.88 1004.50 1005.16 1005.83 1006.46 1007.05 1007.58 1008.04 1008.43 1008.75 1009.01 1009.22 1009.38 1009.50 1009.57 1009.60 1009.57 1009.50 1009.38 1009.22 1009.05 1008.87 1008.71 1008.60 1008.53 1008.53 1008.60 1008.72 1008.88 1009.06 1009.24 1009.40 1009.51 1009.56 1009.55 1009.47 1009.34
1002.00 1001.98 1002.08 1002.30 1002.63 1003.08 1003.61 1004.21 1004.84 1005.47 1006.08 1006.66 1007.18 1007.65 1008.07 1008.44 1008.76 1009.03 1009.25 1009.43 1009.54 1009.58 1009.55 1009.45 1009.27 1009.05 1008.80 1008.54 1008.30 1008.12 1008.01 1007.98 1008.04 1008.17 1008.36 1008.59 1008.81 1009.00 1009.14 1009.21 1009.21 1009.12 1008.97
1001.85 1001.83 1001.93 1002.14 1002.47 1002.90 1003.42 1003.98 1004.58 1005.19 1005.78 1006.34 1006.86 1007.35 1007.81 1008.23 1008.61 1008.95 1009.25 1009.48 1009.64 1009.72 1009.70 1009.57 1009.36 1009.08 1008.76 1008.43 1008.13 1007.89 1007.73 1007.67 1007.72 1007.86 1008.07 1008.32 1008.57 1008.80 1008.96 1009.04 1009.02 1008.92 1008.74
1001.64 1001.63 1001.73 1001.95 1002.28 1002.71 1003.21 1003.76 1004.34 1004.93 1005.51 1006.07 1006.60 1007.12 1007.61 1008.08 1008.53 1008.94 1009.31 1009.61 1009.83 1009.94 1009.94 1009.82 1009.59 1009.28 1008.92 1008.54 1008.20 1007.91 1007.72 1007.64 1007.68 1007.82 1008.04 1008.30 1008.57 1008.81 1008.97 1009.05 1009.02 1008.89 1008.67
1001.28 1001.27 1001.39 1001.62 1001.96 1002.40 1002.91 1003.46 1004.05 1004.64 1005.23 1005.80 1006.36 1006.90 1007.44 1007.96 1008.46 1008.94 1009.37 1009.73 1010.00 1010.16 1010.19 1010.10 1009.89 1009.58 1009.21 1008.83 1008.47 1008.17 1007.97 1007.88 1007.91 1008.05 1008.27 1008.53 1008.80 1009.03 1009.18 1009.24 1009.19 1009.03 1008.77
1000.73 1000.72 1000.84 1001.09 1001.45 1001.92 1002.46 1003.04 1003.66 1004.28 1004.89 1005.49 1006.08 1006.67 1007.24 1007.80 1008.35 1008.88 1009.36 1009.77 1010.09 1010.30 1010.38 1010.33 1010.16 1009.90 1009.56 1009.21 1008.87 1008.59 1008.40 1008.32 1008.36 1008.49 1008.69 1008.94 1009.19 1009.39 1009.52 1009.55 1009.47 1009.28 1008.99
Thickness
5755 5752 5747 5743 5739 5736 5732 5727 5722 5718 5713 5709 5705 5701 5698 5694 5691 5686 5681 5678 5676 5674 5673 5673 5673 5673 5675 5677 5681 5683 5687 5690 5695 5698 5702 5708 5713 5717 5720 5724 5728 5733 5736
5753 5749 5746 5742 5740 5736 5732 5728 5723 5718 5713 5707 5704 5699 5695 5693 5689 5685 5681 5677 5675 5672 5672 5671 5671 5671 5671 5673 5676 5678 5681 5686 5690 5692 5695 5698 5704 5709 5716 5719 5721 5727 5731
5754 5751 5746 5743 5739 5736 5732 5727 5723 5718 5712 5707 5703 5699 5695 5692 5690 5685 5681 5677 5674 5671 5669 5669 5669 5669 5671 5671 5672 5675 5676 5679 5685 5689 5690 5692 5695 5702 5708 5713 5717 5721 5725
5756 5753 5748 5744 5741 5737 5733 5729 5723 5718 5713 5708 5703 5699 5693 5691 5687 5684 5681 5678 5674 5671 5669 5668 5667 5668 5669 5669 5671 5673 5674 5676 5679 5683 5687 5691 5693 5694 5698 5705 5712 5716 5719
5757 5753 5749 5746 5743 5739 5733 5729 5723 5718 5713 5708 5702 5697 5695 5691 5688 5685 5681 5679 5676 5672 5669 5667 5667 5667 5668 5668 5669 5670 5672 5674 5676 5678 5682 5685 5688 5692 5693 5695 5702 5708 5714
5757 5754 5751 5746 5742 5738 5732 5728 5722 5717 5712 5707 5703 5699 5694 5690 5687 5683 5681 5679 5677 5673 5670 5667 5667 5667 5667 5667 5667 5668 5669 5670 5672 5675 5678 5680 5682 5685 5688 5690 5694 5699 5706
5757 5753 5749 5744 5741 5736 5732 5728 5723 5718 5713 5709 5705 5701 5695 5691 5688 5685 5682 5679 5678 5674 5671 5668 5667 5666 5665 5665 5665 5666 5667 5668 5669 5671 5674 5677 5679 5682 5683 5685 5689 5692 5699
5757 5754 5751 5747 5742 5738 5734 5730 5725 5720 5715 5710 5707 5703 5698 5693 5691 5685 5683 5680 5678 5675 5671 5668 5667 5665 5664 5664 5664 5664 5665 5667 5668 5669 5670 5672 5676 5678 5679 5680 5682 5686 5692
5756 5754 5752 5749 5745 5741 5736 5732 5727 5722 5717 5713 5708 5704 5700 5695 5691 5687 5684 5682 5678 5674 5672 5669 5668 5666 5664 5663 5663 5663 5663 5664 5665 5666 5667 5669 5672 5673 5675 5677 5679 5679 5682
5756 5755 5752 5749 5747 5744 5739 5734 5729 5724 5719 5714 5710 5704 5700 5696 5691 5688 5685 5682 5679 5675 5672 5671 5669 5667 5665 5663 5662 5662 5660 5661 5662 5661 5663 5664 5668 5669 5671 5673 5675 5677 5677
5756 5755 5752 5751 5748 5744 5740 5735 5730 5725 5720 5716 5711 5706 5701 5697 5693 5689 5685 5682 5680 5677 5674 5671 5669 5668 5666 5664 5662 5661 5660 5660 5661 5662 5662 5662 5662 5665 5667 5669 5671 5672 5673
5757 5755 5753 5750 5747 5744 5740 5736 5732 5727 5722 5717 5712 5707 5703 5698 5694 5691 5687 5684 5681 5678 5675 5673 5670 5668 5665 5664 5662 5660 5659 5658 5658 5659 5659 5659 5660 5660 5662 5664 5666 5668 5669
5755 5754 5752 5749 5746 5744 5741 5738 5733 5728 5723 5718 5713 5709 5705 5700 5695 5692 5688 5685 5682 5679 5676 5673 5670 5668 5666 5664 5662 5661 5660 5659 5658 5657 5657 5657 5657 5657 5659 5659 5660 5662 5665
5754 5753 5750 5749 5747 5745 5742 5739 5734 5730 5724 5719 5713 5709 5706 5701 5697 5693 5689 5685 5683 5680 5677 5674 5671 5669 5666 5664 5663 5661 5660 5659 5658 5656 5655 5655 5655 5655 5655 5656 5657 5658 5659
5754 5753 5751 5751 5748 5746 5743 5740 5735 5731 5726 5720 5715 5712 5708 5703 5698 5693 5689 5686 5682 5680 5678 5675 5672 5670 5667 5665 5663 5661 5660 5659 5658 5657 5656 5655 5652 5650 5650 5652 5653 5654 5654
5756 5756 5755 5753 5751 5748 5745 5741 5736 5732 5727 5722 5717 5713 5708 5703 5698 5694 5690 5687 5683 5680 5678 5675 5672 5670 5668 5663 5659 5657 5659 5659 5658 5656 5655 5654 5652 5650 5647 5647 5647 5647 5649
5759 5758 5758 5756 5754 5753 5749 5743 5739 5734 5728 5723 5719 5713 5708 5703 5699 5695 5691 5687 5684 5681 5678 5676 5673 5671 5670 5663 5659 5656 5657 5659 5659 5657 5656 5654 5653 5649 5650 5649 5646 5647 5646
5761 5760 5760 5758 5757 5755 5750 5746 5740 5734 5729 5724 5719 5714 5708 5704 5699 5695 5691 5688 5686 5683 5679 5677 5675 5672 5670 5664 5660 5657 5658 5660 5660 5658 5656 5654 5653 5650 5648 5648 5648 5648 5649
5763 5763 5763 5761 5758 5754 5750 5744 5738 5734 5728 5723 5719 5715 5709 5704 5699 5695 5691 5689 5686 5683 5681 5679 5676 5673 5672 5666 5661 5657 5661 5662 5661 5659 5656 5653 5651 5647 5643 5644 5645 5646 5646
5762 5761 5760 5759 5755 5752 5748 5742 5737 5732 5727 5723 5719 5716 5711 5704 5699 5696 5693 5690 5685 5682 5680 5678 5676 5674 5672 5667 5662 5657 5662 5662 5662 5659 5657 5650 5647 5644 5641 5642 5643 5643 5643
5756 5755 5754 5752 5751 5748 5743 5738 5735 5731 5728 5723 5718 5713 5708 5703 5699 5695 5691 5688 5685 5681 5679 5677 5676 5674 5670 5667 5661 5657 5659 5660 5660 5658 5656 5653 5645 5641 5639 5638 5640 5639 5637
5748 5748 5747 5746 5745 5743 5739 5736 5732 5730 5725 5718 5713 5709 5705 5701 5697 5691 5688 5686 5682 5679 5677 5675 5674 5672 5670 5663 5660 5656 5654 5653 5655 5654 5653 5649 5641 5638 5636 5636 5635 5633 5633
5742 5742 5741 5739 5738 5737 5735 5732 5728 5724 5719 5713 5708 5705 5701 5697 5693 5689 5685 5682 5679 5677 5675 5672 5669 5668 5666 5663 5657 5654 5652 5649 5649 5649 5644 5640 5636 5634 5634 5631 5630 5630 5632
5736 5735 5734 5732 5732 5731 5729 5728 5724 5719 5714 5709 5705 5701 5697 5693 5689 5684 5682 5678 5675 5672 5669 5666 5663 5662 5660 5657 5655 5654 5653 5647 5646 5644 5639 5633 5631 5630 5628 5628 5628 5628 5628
5729 5729 5729 5729 5728 5725 5722 5721 5718 5714 5710 5706 5700 5697 5692 5689 5683 5678 5672 5670 5664 5662 5659 5658 5656 5653 5651 5646 5641 5643 5645 5644 5642 5639 5636 5632 5629 5626 5625 5623 5622 5620 5620
5723 5723 5723 5722 5722 5720 5717 5714 5711 5709 5706 5701 5696 5691 5686 5681 5676 5670 5662 5654 5652 5647 5645 5643 5643 5643 5637 5635 5634 5633 5631 5630 5629 5629 5627 5623 5620 5617 5615 5614 5613 5612 5611